[[{"header":{"parameterUnit":"m.s-1","parameterCategory":1,"la1":30.2991,"la2":30.254,"lo1":-89.0895,"lo2":-89.0444,"dy":0.0017,"dx":0.0017,"nx":28,"ny":28,"refTime":"2025-09-14T21:00:00:Z","depth":0,"parameterNumber":2,"parameterNumberName":"U-component_of_WINDS"},"data":[0,0,0,0,0,0,0,0,0,0,0,0,0,0,0,0,0,0,0,0,0,0,0,0,0,0,0,0,0,0,0,0,0,0,0,0,0,0,0,0,0,0,0,0,0,0,0,0,0,0,0,0,0,0,0,0,0,0,2.3195,2.3196,0,2.3227,2.3227,2.3228,2.3177,2.3175,2.3173,2.3171,2.3204,2.3206,2.3208,0,0,0,0,0,0,0,0,0,0,0,0,0,2.3089,2.3092,2.3195,2.3196,2.3196,2.3227,2.3227,2.3228,2.3177,2.3175,2.3173,2.3171,2.3203,2.3206,2.3209,0,0,0,0,0,0,0,0,0,0,0,0,0,2.313,2.3092,2.3195,2.3175,2.3173,2.3227,2.3227,2.3228,2.3177,2.3175,2.3172,2.317,2.3202,2.3205,2.3209,2.3284,0,0,2.322,2.3222,0,0,0,0,0,0,0,0,2.3127,2.3134,2.3177,2.3176,2.3174,2.3195,2.3201,2.3247,2.3178,2.3176,2.3171,2.3168,2.3203,2.3206,2.3218,2.3286,2.3287,2.3221,2.3223,2.3225,2.3226,0,0,0,0,0,0,0,2.3125,2.3132,2.3208,2.3178,2.3176,2.3163,2.3166,2.321,2.3204,2.3176,2.3172,2.3176,2.3202,2.3215,2.3218,2.3288,2.3221,2.3224,2.3226,2.3228,2.3415,2.3417,0,0,0,0,0,0,2.3125,2.313,2.3207,2.3209,2.3144,2.3167,2.317,2.3191,2.3203,2.3202,2.3179,2.3174,2.3209,2.3214,2.3219,2.3305,2.3225,2.3228,2.323,2.3412,2.3415,2.3418,0,0,0,0,0,0,2.3123,2.3132,2.3206,2.3168,2.3177,2.3172,2.3196,2.3193,2.3206,2.3205,2.3204,2.3193,2.3208,2.3214,2.3268,2.3305,2.323,2.3233,2.3409,2.3413,2.3417,2.3479,0,0,0,0,0,0,2.312,2.3132,2.3161,2.3169,2.3179,2.3254,2.3198,2.3196,2.3212,2.3207,2.3218,2.3218,2.3206,2.3262,2.3271,2.3309,2.3236,2.3405,2.3411,2.3415,2.3473,2.3484,2.3494,0,0,0,0,0,2.3116,2.3178,2.3163,2.3172,2.3216,2.3257,2.3262,2.3247,2.3216,2.3244,2.3243,2.3217,2.33,2.3268,2.3278,2.3317,2.3403,2.3409,2.3415,2.3469,2.3482,2.3494,0,0,0,0,0,0,2.3175,2.3179,2.3162,2.3229,2.3242,2.3248,2.3284,2.3263,2.3286,2.328,2.326,2.3263,2.332,2.3325,2.3289,2.3389,2.3346,2.3355,2.3383,2.3396,2.3407,2.3403,2.3239,0,0,0,0,0,2.3196,2.3229,2.3231,2.3289,2.3297,2.3289,2.3307,2.3294,2.3308,2.3313,2.3316,2.333,2.3359,2.3378,2.3405,2.3474,2.3474,2.3506,2.3516,2.3525,2.3532,2.3564,2.3577,2.3438,2.3438,2.3438,0,0,2.3239,2.3245,2.3268,2.3301,2.331,2.3344,2.3295,2.3334,2.3357,2.3319,2.3369,2.3372,2.3386,2.3446,2.3473,2.3452,2.357,2.3533,2.354,2.3542,2.3572,2.3585,2.3597,2.3443,2.3442,2.3441,0,0,2.3334,2.3344,2.3391,2.3401,2.3415,2.3409,2.3421,2.3429,2.3428,2.3478,2.3449,2.3477,2.3528,2.3538,2.355,2.3646,2.3622,2.3656,2.3709,2.3741,2.3752,2.3761,2.3792,2.3804,2.3663,2.3663,2.3663,0,2.3386,2.3436,2.3419,2.3458,2.3472,2.3438,2.3485,2.3496,2.3518,2.3528,2.3504,2.3565,2.3572,2.3633,2.3656,2.3668,2.3678,2.3653,2.3752,2.3761,2.377,2.3799,2.3811,2.3667,2.3666,2.3666,2.3665,0,2.3496,2.3531,2.3568,2.3588,2.3607,2.3651,2.3639,2.366,2.3645,2.3641,2.369,2.3698,2.3723,2.3738,2.3725,2.3795,2.3781,2.3755,2.3711,2.3787,2.3814,2.3825,2.3672,2.3671,2.3669,2.3669,0,0,2.363,2.3638,2.3652,2.3659,2.3671,2.3697,2.3738,2.3762,2.3779,2.3795,2.3827,2.387,2.3844,2.3858,2.3845,2.3874,2.3945,2.3844,2.3844,2.3859,2.4019,2.4036,2.405,2.393,2.3932,2.3934,2.4017,0,2.3721,2.379,2.3775,2.3843,2.3872,2.3839,2.3874,2.3885,2.3882,2.3906,2.3903,2.3932,2.3899,2.3906,2.3933,2.393,2.3976,2.3925,2.3957,2.3958,2.3951,2.4064,2.4083,2.4161,2.4027,2.4029,2.4031,0,2.3838,2.3856,2.3926,2.3929,2.3941,2.3973,2.3992,2.4016,2.4026,2.4022,2.4036,2.4017,2.4055,2.4013,2.4064,2.4029,2.4041,2.4042,2.4045,2.4045,2.3997,2.4064,2.4186,2.4197,2.4048,2.4046,2.4045,0,2.3923,2.3966,2.4012,2.4019,2.4026,2.4048,2.4051,2.4059,2.4074,2.4091,2.4099,2.4121,2.4133,2.415,2.4136,2.4107,2.4188,2.4146,2.4184,2.4184,2.42,2.4199,2.4323,2.4214,2.4214,2.4213,2.4213,0,2.4025,2.4068,2.4049,2.4078,2.4124,2.4106,2.4152,2.4152,2.4159,2.4185,2.4159,2.4185,2.4167,2.4191,2.4181,2.4222,2.4229,2.4225,2.4221,2.4225,2.4225,2.4231,2.4224,2.4216,2.4216,2.4215,2.4215,0,2.4127,2.4117,2.4164,2.4165,2.4166,2.42,2.4201,2.4226,2.4221,2.4254,2.4261,2.4253,2.4279,2.4268,2.4296,2.4289,2.4342,2.4333,2.4338,2.4334,2.4371,2.4366,2.4501,2.4516,2.44,2.4401,2.4402,0,2.4191,2.4223,2.4227,2.4242,2.4247,2.4273,2.4286,2.4269,2.4285,2.4297,2.432,2.4344,2.4361,2.4405,2.44,2.4421,2.441,2.4456,2.4413,2.4415,2.4406,2.4403,2.4405,2.4463,2.4465,2.4466,2.4467,0,2.4305,2.4298,2.4318,2.4336,2.4353,2.4367,2.4379,2.4393,2.4376,2.4394,2.4419,2.4433,2.446,2.4483,2.4501,2.4504,2.4482,2.4481,2.449,2.4493,2.4493,2.449,2.4357,2.4477,2.4476,2.4475,2.4475,2.4474,2.4388,2.4413,2.4418,2.4441,2.4448,2.4458,2.4481,2.4477,2.4498,2.4518,2.4507,2.4536,2.4542,2.4564,2.4569,2.4591,2.4573,2.4587,2.459,2.4593,2.4596,2.4492,2.4595,2.4594,2.4594,2.4594,2.4594,0,2.4497,2.4498,2.4519,2.4535,2.4552,2.453,2.4541,2.4556,2.4582,2.459,2.4607,2.4635,2.4656,2.4653,2.4672,2.469,2.468,2.4695,2.4692,2.4693,2.4613,2.4602,2.4703,2.4703,2.4703,2.4703,2.4703,2.4703,2.4556,2.4596,2.4588,2.463,2.4631,2.4658,2.4666,2.4675,2.468,2.4712,2.4729,2.4727,2.473,2.4748,2.4766,2.4765,2.4771,2.479,2.4784,2.471,2.4699,2.4688,2.4677,2.4792,2.4792,2.4861,2.4862,2.4862]},{"header":{"parameterUnit":"m.s-1","parameterCategory":1,"la1":30.2991,"la2":30.254,"lo1":-89.0895,"lo2":-89.0444,"dy":0.0017,"dx":0.0017,"nx":28,"ny":28,"refTime":"2025-09-14T21:00:00:Z","depth":0,"parameterNumber":3,"parameterNumberName":"V-component_of_WINDS"},"data":[0,0,0,0,0,0,0,0,0,0,0,0,0,0,0,0,0,0,0,0,0,0,0,0,0,0,0,0,0,0,0,0,0,0,0,0,0,0,0,0,0,0,0,0,0,0,0,0,0,0,0,0,0,0,0,0,0,0,1.6901,1.6901,0,1.6883,1.6882,1.6882,1.6845,1.6845,1.6844,1.6843,1.6823,1.6823,1.6823,0,0,0,0,0,0,0,0,0,0,0,0,0,1.6902,1.6902,1.6901,1.6901,1.6901,1.6883,1.6882,1.6882,1.6845,1.6845,1.6844,1.6843,1.6823,1.6823,1.6823,0,0,0,0,0,0,0,0,0,0,0,0,0,1.6894,1.6902,1.6901,1.688,1.6878,1.6883,1.6882,1.6882,1.6846,1.6845,1.6843,1.6842,1.6823,1.6823,1.6823,1.6846,0,0,1.6824,1.6824,0,0,0,0,0,0,0,0,1.6895,1.6894,1.6883,1.6882,1.6879,1.6865,1.6875,1.687,1.6846,1.6858,1.6843,1.6842,1.6838,1.6837,1.6835,1.6845,1.6844,1.6824,1.6824,1.6824,1.6824,0,0,0,0,0,0,0,1.6895,1.6895,1.6894,1.6883,1.6881,1.6871,1.6868,1.6874,1.6854,1.6857,1.6854,1.6852,1.6836,1.6835,1.6835,1.6844,1.6824,1.6824,1.6824,1.6824,1.6869,1.687,0,0,0,0,0,0,1.6899,1.6895,1.6894,1.6893,1.6885,1.6872,1.6869,1.6871,1.6854,1.685,1.6853,1.6851,1.6836,1.6835,1.6834,1.6858,1.6824,1.6824,1.6824,1.6868,1.6869,1.687,0,0,0,0,0,0,1.6899,1.6899,1.6895,1.6894,1.6892,1.6873,1.6875,1.6871,1.687,1.6851,1.6847,1.6856,1.6835,1.6834,1.6843,1.6857,1.6824,1.6824,1.6866,1.6868,1.6869,1.6907,0,0,0,0,0,0,1.6899,1.69,1.6909,1.6894,1.6892,1.6905,1.6876,1.6871,1.6871,1.6867,1.6853,1.685,1.6834,1.6843,1.6843,1.6856,1.6825,1.6865,1.6867,1.6869,1.6904,1.691,1.6914,0,0,0,0,0,1.69,1.6921,1.691,1.691,1.6904,1.6906,1.6905,1.6887,1.6872,1.688,1.6868,1.685,1.6855,1.6844,1.6844,1.6858,1.6864,1.6866,1.6869,1.6902,1.6909,1.6914,0,0,0,0,0,0,1.6938,1.6918,1.6906,1.6923,1.6917,1.69,1.691,1.6895,1.6892,1.6889,1.6866,1.6863,1.6874,1.6867,1.6855,1.6877,1.6856,1.6859,1.6882,1.6888,1.6893,1.6894,1.6825,0,0,0,0,0,1.6948,1.6953,1.6935,1.6952,1.6949,1.693,1.6931,1.6917,1.6909,1.6906,1.6895,1.6887,1.6887,1.6887,1.6886,1.6903,1.6898,1.6912,1.6917,1.6921,1.6923,1.693,1.6935,1.6878,1.6878,1.6878,0,0,1.697,1.696,1.6964,1.6959,1.6952,1.6956,1.6928,1.6934,1.6936,1.6907,1.6914,1.6906,1.6896,1.6908,1.6913,1.6902,1.6938,1.6924,1.6928,1.6928,1.6933,1.6938,1.6943,1.6879,1.6879,1.6879,0,0,1.7011,1.7004,1.7016,1.701,1.7,1.6987,1.699,1.6976,1.6968,1.6976,1.6953,1.6955,1.6956,1.6948,1.6945,1.6981,1.6964,1.6981,1.7007,1.7013,1.7017,1.7021,1.7032,1.7037,1.6984,1.6984,1.6984,0,1.7038,1.7044,1.7024,1.7031,1.7028,1.7002,1.7013,1.7008,1.6998,1.6996,1.6984,1.6983,1.6974,1.6984,1.6993,1.6991,1.6992,1.6983,1.7018,1.7022,1.7025,1.7035,1.704,1.6986,1.6986,1.6985,1.6985,0,1.7078,1.7082,1.7092,1.7083,1.7082,1.7091,1.7071,1.7072,1.7058,1.7046,1.7053,1.7042,1.7037,1.7038,1.7025,1.7045,1.7038,1.7023,1.7001,1.7033,1.7042,1.7046,1.6989,1.6988,1.6988,1.6987,0,0,1.7142,1.7121,1.7125,1.712,1.7106,1.7109,1.7115,1.711,1.7111,1.7105,1.7108,1.7109,1.7093,1.7089,1.7075,1.7081,1.7107,1.7064,1.7063,1.7071,1.7127,1.7137,1.7142,1.7096,1.7096,1.7097,1.7127,0,1.7179,1.719,1.7172,1.7186,1.7188,1.7163,1.7168,1.716,1.7148,1.7147,1.7134,1.7134,1.7115,1.7112,1.7117,1.7103,1.7118,1.7101,1.7097,1.7098,1.71,1.7148,1.716,1.7188,1.713,1.7131,1.7131,0,1.7224,1.7219,1.7234,1.7217,1.7218,1.7223,1.7216,1.7216,1.7205,1.7196,1.7191,1.7173,1.7177,1.7157,1.7161,1.7149,1.7147,1.7139,1.714,1.7138,1.7116,1.7145,1.7197,1.7201,1.7137,1.7137,1.7136,0,1.7267,1.7265,1.7273,1.7269,1.7251,1.7255,1.7247,1.7235,1.7233,1.7226,1.7224,1.7218,1.7215,1.721,1.719,1.7178,1.7196,1.7174,1.7187,1.7187,1.7191,1.7191,1.7242,1.7192,1.7192,1.7192,1.7192,0,1.7309,1.7319,1.7292,1.7297,1.7306,1.7284,1.7294,1.7283,1.7272,1.7274,1.7251,1.7252,1.7227,1.7226,1.721,1.7214,1.7214,1.7205,1.7201,1.7206,1.7207,1.7204,1.7201,1.7193,1.7193,1.7192,1.7192,0,1.7359,1.7342,1.7348,1.733,1.7326,1.7333,1.7317,1.7319,1.7306,1.7308,1.7307,1.7286,1.7282,1.7262,1.7255,1.7244,1.7253,1.7245,1.7257,1.7254,1.7267,1.7265,1.7316,1.7321,1.7269,1.727,1.727,0,1.7387,1.7394,1.7376,1.7375,1.7368,1.7368,1.7365,1.7343,1.7341,1.7327,1.7331,1.7326,1.7321,1.7316,1.7299,1.7292,1.7283,1.7301,1.7282,1.7287,1.7281,1.7281,1.728,1.7305,1.7306,1.7306,1.7307,0,1.7437,1.7427,1.7424,1.7418,1.7415,1.7409,1.7401,1.7402,1.7377,1.7376,1.7372,1.7368,1.7359,1.7353,1.7343,1.7334,1.7316,1.7313,1.7315,1.7321,1.7326,1.7322,1.7267,1.7312,1.7311,1.7311,1.7311,1.7311,1.7475,1.7479,1.7467,1.7463,1.7455,1.7448,1.7449,1.7436,1.7432,1.7424,1.7411,1.7408,1.7395,1.738,1.7371,1.7368,1.7358,1.7362,1.7362,1.7363,1.7366,1.7328,1.7366,1.7366,1.7366,1.7366,1.7366,0,1.7522,1.7513,1.751,1.75,1.7497,1.7481,1.7471,1.7469,1.7467,1.7457,1.7451,1.7446,1.744,1.7422,1.7413,1.7414,1.7405,1.7412,1.7411,1.7409,1.7376,1.7374,1.7419,1.7419,1.7419,1.7419,1.7419,1.7419,1.7547,1.7552,1.754,1.7541,1.753,1.7528,1.7523,1.7516,1.7507,1.7502,1.7497,1.7486,1.7471,1.7462,1.7454,1.7449,1.7446,1.7456,1.7448,1.7417,1.7412,1.7407,1.7405,1.7456,1.7456,1.7481,1.7481,1.7481]}]]